Location: Rochester
(43.1610°N, 77.6109°W)
Time: 09:54:45
(UTC-04:00)

N. Korean satellite - Visible Passes

Search period start: 25 September 2022 00:00
Search period end: 05 October 2022 00:00
Orbit: 428 x 468 km, 97.3° (Epoch: 24 September)

Date Brightness Start Highest point End Pass type
(mag) Time Alt. Az. Time Alt. Az. Time Alt. Az.
25 Sep 8.2 06:02:39 10° NNE 06:05:42 34° E 06:08:42 10° SSE visible
26 Sep 9.8 05:28:30 10° ENE 05:29:53 12° E 05:31:15 10° ESE visible
27 Sep 6.6 06:23:55 10° NNE 06:27:12 72° ESE 06:30:26 10° S visible
28 Sep 9.1 05:48:46 10° NE 05:51:25 22° E 05:54:02 10° SSE visible
30 Sep 7.7 06:09:35 10° NNE 06:12:43 43° E 06:15:51 10° S visible
01 Oct 9.6 05:34:50 10° ENE 05:36:46 15° E 05:38:41 10° SE visible
02 Oct 6.3 06:30:32 10° NNE 06:33:50 89° SE 06:37:05 10° SSW visible
03 Oct 8.7 05:55:04 10° NE 05:57:54 27° E 06:00:43 10° SSE visible
